Погода в Высоком

Беларусь     52°22′01″N   23°22′40″E
темп.,
°C
ветер,
м/с
пор.,
м/с
влажн.,
%
обл.,
%
осадки,
мм/ч
давл.,
гПа
погр.,
м
25 февраля, чт
чт2500:00+3зюз34100100 0.0 103167
03:00+2зюз239798 0.0 103127
06:00+3зюз239639 0.0 103022
09:00+3зюз229660 0.0 103022
12:00+5юз2310029 0.0 103075
15:00+7юз359522 0.0 1029131
18:00+6юз34910 0.0 102752
21:00+5юз45910 0.0 102665
26 февраля, пт
пт2600:00+4юз48880 0.0 1025103
03:00+4зюз48880 0.0 1024121
06:00+4з47930 0.0 1023126
09:00+3з47978 0.0 1023142
12:00+8з5108898 0.0 1023480
15:00+8зсз6117198 0.0 1023709
18:00+7з61273100 0.0 1021734
21:00+5зсз51480100 0.0 1022606
27 февраля, сб
сб2700:00+4зсз7158442 0.0 1021638
03:00+4зсз6138171 0.0 1021787
06:00+4зсз8158598 0.0 1020665
09:00+4сз8148598 0.0 1020940
12:00+5сз9136767 0.1 10211155
15:00+7сз9135736 0.1 10221387
18:00+6сз8136090 0.0 10231330
21:00+4сз7136893 0.0 1025867
28 февраля, вс
вс2800:00+2ссз6117881 0.0 1027615
03:00+1ссз588586 0.0 1029477
06:00−1сз499257 0.0 1029309
09:00−1сз488948 0.0 1030359
12:00+2сз5872100 0.0 1031577
15:00+4сз5761100 0.0 1031805
18:00+4ссз486597 0.0 1030714
21:00+2сз348094 0.0 1031102
1 марта, пн
пн100:00+2ссз369894 0.0 1032248
03:00+2сз239897 0.1 103499
06:00+1ссз249693 0.1 1034121
09:00+1сз249677 0.1 103585
12:00+4сз457760 0.0 1036414
15:00+7зсз346457 0.0 1036808
18:00+7зсз456841 0.0 1036703
21:00+3зсз348520 0.0 103696